Vorticity
10 9 -1 43 57 53 5 19 7 13 9 5 0 -3 19 10 15 7 -2 13 9 6 2 7 6 17 15 4 5 12 9 22 2 5 9 2 3 14 -3 4 13 10 10 2
11 2 47 12 49 -33 35 9 -0 29 9 4 -3 5 23 17 16 3 6 9 -0 6 10 6 5 10 24 -1 5 3 4 14 2 16 13 9 9 8 5 -4 -4 9 13 9
12 17 27 49 -31 -8 41 16 -6 7 4 1 7 23 19 6 18 3 -2 7 4 11 3 -2 8 7 19 7 1 1 7 14 8 11 15 18 12 11 7 -1 5 3 -2 15
20 17 3 65 -34 12 24 17 -5 -6 46 3 5 20 26 2 13 6 5 11 8 7 -2 -2 15 8 16 11 3 3 0 9 9 7 5 11 10 22 10 5 2 0 9 -12
39 11 18 35 1 44 14 17 4 4 1 -10 32 14 6 3 9 7 6 13 6 10 -5 -5 10 10 20 -6 12 11 -3 22 4 5 3 2 4 6 9 20 13 6 4 4
19 20 13 -23 -2 37 24 -15 7 14 15 14 27 8 12 7 8 10 11 20 7 8 12 -3 8 9 15 22 10 3 7 8 9 11 10 9 22 22 12 4 7 12 18 21
59 -7 27 59 36 13 -4 -2 8 8 19 19 16 28 17 11 7 14 15 16 10 8 8 6 5 11 6 10 14 16 1 8 5 9 11 11 12 9 10 15 18 22 18 9
2 13 49 22 24 26 -18 39 2 -0 13 8 9 16 14 12 8 16 10 11 2 6 6 9 7 9 6 8 4 8 11 17 4 12 13 -2 14 13 6 9 10 12 15 22
-11 35 38 9 17 7 55 -4 1 5 14 19 -4 17 10 9 7 15 9 10 8 10 6 -4 8 12 9 18 14 7 7 5 -0 7 6 1 9 20 10 1 8 7 12 12
13 35 19 20 4 22 3 9 -1 -3 6 20 10 11 6 9 5 7 9 7 8 11 4 2 9 7 11 5 7 25 8 7 4 3 -0 16 6 3 1 10 -0 7 9 10
64 18 24 20 17 11 3 10 13 12 -7 27 12 10 11 14 8 10 21 7 9 8 2 14 -1 18 7 5 11 13 9 5 19 21 7 18 27 12 -5 3 5 9 10 10
42 14 15 7 19 -4 12 6 8 11 -5 40 15 7 14 5 11 9 15 -28 43 6 -3 6 10 5 18 4 6 3 15 -10 10 -7 26 -0 15 19 5 12 6 6 7 7
5 27 7 22 3 2 5 9 9 10 8 17 19 10 8 12 10 17 4 3 11 14 8 13 6 0 21 7 9 11 10 7 -4 9 18 7 5 -0 3 2 5 8 6 5
28 -2 5 4 8 9 11 9 11 9 13 20 15 14 14 13 14 10 -1 21 -2 30 14 3 8 18 23 13 2 13 4 11 6 6 6 -0 4 11 12 10 9 6 4 7
71 5 7 5 9 15 1 11 12 5 -0 29 15 14 11 10 10 12 8 10 13 11 14 -1 10 16 -3 13 10 10 7 6 7 6 10 9 3 1 10 7 8 7 6 5
11 29 0 7 10 13 -3 12 14 12 -9 31 5 17 13 11 12 10 16 -0 14 14 7 6 9 5 4 10 20 23 19 16 13 8 8 9 10 17 12 11 12 16 19 10
27 14 -23 -11 9 12 8 9 27 -1 30 16 22 11 15 13 11 11 11 9 12 12 9 11 12 13 8 2 -3 4 12 14 14 14 15 14 15 14 13 10 6 8 11 12
23 5 18 -11 -12 2 9 19 -9 21 -5 -2 14 27 12 11 10 8 9 8 8 8 8 9 8 7 7 14 23 16 12 11 11 10 9 7 9 8 7 8 7 8 9 13
11 19 15 3 16 4 9 16 7 12 -3 6 16 34 24 7 8 7 6 7 10 9 6 8 9 16 8 13 17 10 13 13 9 8 8 8 8 8 9 8 10 13 11 7
6 18 15 -3 7 14 12 14 4 9 -4 2 13 23 17 11 6 5 -8 15 4 12 24 14 18 4 2 6 9 9 13 11 10 8 8 8 10 9 9 11 10 8 6 6
14 6 -21 15 -4 14 5 14 2 9 15 16 10 29 32 8 6 9 -8 21 9 9 19 -0 11 9 15 20 13 12 11 10 9 10 9 9 10 10 10 9 8 8 9 10
12 16 -2 15 6 -7 0 19 13 16 4 24 7 33 22 13 5 -2 12 4 12 7 12 7 14 16 16 16 17 12 10 10 9 8 9 10 9 10 10 10 9 10 10 10
14 -0 9 -2 -6 13 12 21 22 10 24 11 16 10 4 20 -4 11 12 10 12 13 11 11 -2 12 18 18 14 12 8 7 7 8 8 8 9 10 10 10 9 10 11 11
-3 -6 19 -7 27 12 7 2 13 11 25 21 13 17 -3 7 2 8 6 10 5 11 5 -10 1 11 13 13 14 10 5 7 6 7 8 8 9 10 10 10 9 11 12 11
-8 4 13 -3 17 24 38 14 -22 6 -7 1 26 16 -9 21 -3 14 9 8 13 11 12 16 19 -4 6 17 12 6 3 5 5 7 8 7 8 10 12 10 10 9 11 11
-14 2 11 50 2 6 26 6 44 -15 18 19 6 22 15 8 5 14 6 6 13 18 5 4 -5 10 16 11 10 5 4 3 6 8 8 9 10 12 12 11 9 10 11 11
-3 23 6 39 -19 21 8 -7 20 7 -5 -1 -5 17 11 14 13 10 8 -0 -4 7 3 -2 17 4 11 14 9 6 2 8 8 7 9 11 13 12 11 8 9 10 11 12
Height
2947 2946 2945 2943 2946 2958 2965 2971 2980 2986 2989 2996 2996 2999 3003 3008 3011 3014 3016 3019 3021 3023 3026 3027 3028 3029 3030 3032 3034 3037 3038 3040 3043 3047 3048 3050 3051 3054 3057 3057 3060 3059 3060 3061
2938 2935 2933 2935 2940 2951 2956 2966 2977 2981 2984 2987 2990 2995 3000 3004 3008 3012 3015 3019 3021 3022 3025 3028 3028 3029 3031 3034 3035 3037 3038 3040 3044 3048 3051 3051 3052 3054 3056 3057 3059 3059 3058 3059
2930 2927 2923 2929 2932 2943 2954 2964 2971 2977 2979 2982 2988 2991 2997 3001 3005 3011 3015 3017 3019 3022 3025 3027 3028 3029 3031 3034 3036 3038 3039 3040 3041 3043 3044 3046 3049 3051 3053 3055 3057 3057 3059 3060
2923 2921 2921 2926 2934 2939 2949 2959 2965 2969 2971 2975 2983 2989 2994 2998 3002 3008 3013 3016 3018 3021 3024 3026 3028 3031 3032 3035 3037 3039 3040 3040 3041 3042 3044 3045 3046 3049 3051 3052 3056 3058 3059 3060
2919 2921 2924 2931 2937 2941 2947 2958 2963 2969 2971 2975 2982 2986 2991 2995 3001 3006 3010 3013 3017 3020 3024 3026 3027 3030 3032 3035 3037 3039 3041 3042 3042 3043 3044 3045 3046 3047 3049 3050 3053 3054 3055 3057
2919 2924 2928 2930 2935 2939 2947 2957 2963 2970 2971 2974 2978 2982 2989 2995 3001 3006 3010 3014 3017 3020 3024 3026 3028 3030 3032 3034 3036 3039 3042 3040 3042 3043 3044 3046 3047 3046 3046 3047 3048 3050 3050 3052
2918 2920 2924 2927 2933 2941 2951 2956 2962 2968 2971 2974 2978 2985 2990 2996 3002 3006 3009 3013 3017 3022 3024 3026 3028 3030 3032 3034 3036 3038 3039 3039 3042 3042 3045 3048 3043 3043 3043 3044 3044 3045 3045 3048
2915 2918 2919 2923 2933 2941 2952 2956 2964 2968 2972 2975 2980 2985 2991 2996 3001 3006 3009 3013 3018 3021 3024 3026 3029 3031 3032 3034 3036 3037 3038 3039 3040 3042 3044 3043 3042 3042 3043 3043 3043 3042 3043 3043
2918 2919 2921 2926 2934 2944 2952 2956 2964 2969 2973 2975 2979 2985 2991 2995 3000 3005 3009 3013 3017 3020 3023 3026 3027 3030 3031 3033 3035 3036 3038 3039 3041 3042 3043 3042 3039 3040 3041 3042 3040 3040 3041 3041
2920 2923 2927 2931 2938 2948 2952 2958 2964 2969 2973 2975 2980 2985 2989 2995 2999 3004 3008 3012 3016 3019 3021 3024 3026 3028 3030 3031 3032 3033 3036 3039 3040 3042 3043 3039 3039 3039 3040 3042 3044 3039 3040 3040
2922 2924 2930 2934 2942 2950 2957 2962 2966 2970 2973 2976 2980 2985 2990 2994 2999 3003 3008 3013 3014 3017 3020 3023 3024 3025 3028 3029 3030 3031 3034 3037 3038 3041 3042 3040 3037 3039 3041 3041 3038 3038 3037 3037
2927 2928 2933 2938 2946 2954 2959 2963 2968 2971 2975 2977 2980 2985 2990 2995 2999 3003 3006 3009 3011 3014 3018 3020 3022 3023 3025 3027 3029 3031 3033 3034 3035 3037 3036 3036 3036 3036 3038 3038 3038 3037 3036 3036
2932 2932 2937 2943 2949 2955 2960 2964 2969 2972 2974 2977 2981 2985 2989 2993 2997 3001 3005 3008 3011 3012 3015 3017 3019 3021 3023 3024 3026 3028 3029 3031 3032 3034 3033 3034 3034 3035 3035 3035 3034 3034 3033 3032
2936 2939 2943 2948 2953 2957 2961 2965 2969 2973 2975 2976 2980 2984 2988 2992 2996 2999 3003 3006 3009 3011 3014 3015 3017 3019 3021 3022 3024 3025 3027 3028 3028 3029 3030 3030 3031 3032 3032 3031 3030 3029 3028 3027
2938 2942 2947 2952 2956 2959 2962 2967 2970 2973 2978 2977 2980 2984 2988 2992 2995 2998 3001 3005 3007 3010 3012 3014 3016 3018 3020 3020 3021 3021 3022 3023 3024 3024 3025 3025 3026 3026 3026 3026 3026 3024 3023 3022
2942 2945 2949 2955 2958 2962 2967 2969 2972 2973 2976 2978 2980 2984 2987 2991 2994 2997 3000 3004 3006 3008 3010 3013 3014 3016 3019 3018 3016 3017 3018 3019 3020 3020 3020 3021 3021 3021 3020 3020 3019 3018 3016 3014
2947 2950 2953 2958 2962 2965 2969 2971 2974 2974 2976 2980 2982 2984 2987 2990 2993 2996 2999 3003 3005 3008 3009 3011 3013 3014 3015 3014 3013 3013 3014 3015 3015 3015 3016 3017 3017 3016 3016 3015 3014 3012 3010 3008
2947 2953 2956 2961 2965 2968 2971 2972 2972 2976 2979 2981 2982 2983 2987 2990 2993 2996 2999 3002 3005 3007 3009 3010 3011 3012 3012 3010 3010 3010 3011 3012 3013 3013 3013 3014 3013 3013 3011 3010 3009 3007 3005 3002
2947 2954 2958 2962 2966 2969 2971 2974 2976 2978 2982 2981 2981 2982 2986 2990 2993 2996 3000 3002 3005 3007 3007 3008 3010 3008 3007 3006 3007 3007 3009 3010 3010 3011 3011 3010 3010 3009 3007 3006 3003 3001 2999 2997
2947 2952 2958 2963 2966 2969 2972 2974 2976 2977 2979 2980 2980 2982 2984 2989 2992 2996 3000 3001 3003 3003 3005 3005 3004 3002 3003 3003 3003 3004 3006 3007 3007 3007 3007 3007 3006 3005 3003 3000 2998 2996 2994 2992
2947 2952 2957 2962 2966 2970 2971 2972 2974 2976 2977 2978 2979 2981 2985 2989 2992 2995 2998 2998 3000 3000 3001 3002 2999 2998 2998 2999 3000 3001 3002 3003 3004 3004 3004 3003 3001 3000 2998 2996 2993 2991 2988 2985
2948 2952 2958 2962 2966 2968 2969 2969 2971 2971 2974 2974 2977 2981 2984 2987 2991 2994 2997 2997 2998 2997 2998 2998 2995 2995 2995 2996 2997 2998 2999 3000 3000 3000 3000 2999 2997 2996 2993 2991 2988 2985 2982 2979
2945 2951 2956 2960 2963 2963 2962 2963 2965 2967 2967 2971 2975 2979 2983 2987 2991 2992 2993 2994 2994 2995 2994 2992 2993 2992 2993 2993 2994 2996 2997 2997 2997 2996 2995 2994 2993 2990 2988 2985 2982 2979 2976 2972
2942 2944 2950 2954 2953 2952 2954 2959 2962 2965 2967 2970 2974 2978 2982 2984 2988 2989 2991 2991 2992 2990 2988 2988 2989 2990 2990 2991 2992 2993 2994 2994 2993 2992 2990 2989 2987 2984 2982 2979 2976 2973 2970 2966
2937 2940 2940 2940 2944 2948 2952 2956 2961 2963 2967 2971 2973 2977 2982 2983 2986 2987 2987 2987 2985 2984 2984 2985 2986 2987 2987 2988 2989 2990 2990 2989 2989 2987 2985 2983 2981 2979 2976 2972 2970 2966 2963 2960
2930 2932 2931 2936 2942 2945 2949 2953 2957 2964 2966 2968 2972 2975 2978 2980 2981 2981 2981 2981 2980 2980 2982 2983 2984 2984 2984 2986 2986 2986 2986 2985 2984 2982 2980 2977 2975 2972 2970 2967 2963 2960 2957 2954
2920 2923 2928 2932 2939 2944 2947 2951 2955 2959 2962 2965 2968 2971 2973 2975 2975 2975 2974 2976 2978 2978 2979 2980 2980 2981 2982 2983 2983 2982 2981 2980 2978 2976 2974 2971 2968 2965 2963 2960 2957 2953 2951 2947